|
|
Comet C/2015 VL62 (Lemmon-Yeung-PANSTARRS)
(Preview)
Comet C/2015 VL62 (Lemmon-Yeung-PANSTARRS) in the constellation Ophiuchus is at Opposition on the 28th May 2018. Magnitude: 16.2
|
Blobrana
|
0
|
|
|
|
|
Comet C/2015 XY1 (Lemmon)
(Preview)
Comet C/2015 XY1 (Lemmon) is at perihelion (7.928 AU) on the 30th April 2018.
|
Blobrana
|
0
|
|
|
|
|
Comet C/2015 Q1 (Scotti)
(Preview)
Comet C/2015 Q1 (Scotti) is at Perihelion (1.918 AU) in the constellation Orion on the 7th September 2015 EphemerisDate UT R.A. (J2000) Decl. Delta r El. Ph. Mag
2015 09 06 000000 04 57 26.9 +14 44 08 1.439 1.731 88.2 35.6 17.2
2015 09 07 000000 04 59 36.9 +14 30 51 1.431 1.731 88.6 35.6 17.2
2015 09 08 000...
|
Blobrana
|
1
|
|
|
|
|
Comet 93P/Lovas 1
(Preview)
Comet 93P/Lovas 1 is at Opposition (3.853 AU) in the constellation Sagittarius on the 2nd July 2015 EphemerisDate TT R. A. (2000) Decl. Delta r Elong. Phase Mag
2015 07 01 18 49 27.4 -36 21 35 3.8576 4.8521 166.6 2.8 22.7
2015 07 02 18 48 38.5 -36 22 09 3.8528 4.8476 166.6 2.8 22.7
2015 07 03 18 47 49.4 -36 2...
|
Blobrana
|
2
|
|
|
|
|
Comet 18D/Perrine-Mrkos
(Preview)
Comet 18D/Perrine-Mrkos is at Opposition (3.760 AU) on the 4th June 2015 EphemerisDate UT R.A. (J2000) Decl. Delta r El. Ph. Mag
2015 06 03 000000 16 52 11.9 -16 39 31 3.764 4.774 173.9 1.3 22.0
2015 06 04 000000 16 51 29.7 -16 36 42 3.760 4.770 174.1 1.2 21.9
2015 06 05 000000 16 50 47.5 -16 33 54 3.756 4.7...
|
Blobrana
|
2
|
|
|
|
|
Comet C/1945 X1 (du Toit)
(Preview)
Title: Was Comet C/1945 X1 (du Toit) a Tiny, SOHO-Like Kreutz Sungrazer? Author: Zdenek Sekanina, Rainer Kracht The goal of this investigation is to reinterpret and upgrade the astrometric and other data on comet C/1945 X1, the least prominent among the Kreutz system sungrazers discovered from t...
|
Blobrana
|
1
|
|
|
|
|
Comet C/2015 V2 Johnson
(Preview)
Eyes on the Sky: Comet C/2015 V2 Johnson Spoiler
|
Blobrana
|
3
|
|
|
|
|
Comet C/2014 Q2 (Lovejoy)
(Preview)
Orbital elements:
C/2014 Q2 (Lovejoy)
T 2015 Feb. 14.86486 TT MPC
q 1.7767515 (2000.0) P Q
Peri. 356.34692 -0.24290752 -0.19042558
Node 104.74674 +0.91307187 -0.37598674
e 1.0 Incl. 79.60067 +0.32756022 +0.90684732
From 23 observations 2014 Aug. 17-19. MPEC 2014 - Q10
|
Blobrana
|
3
|
|
|
|
|
Comet 188P/LINEAR-Mueller
(Preview)
Comet 188P/LINEAR-Mueller is at Opposition (3.343 AU) in the constellation Corona Australis on the 25th June 2015 EphemerisDate TT R. A. (2000) Decl. Delta r Elong. Phase Mag
2015 06 24 18 13 23.4 -37 04 10 3.3463 4.3405 166.3 3.2 20.5
2015 06 25 18 12 35.1 -37 04 31 3.3428 4.3371 166.3 3.2 20.5
2015 06...
|
Blobrana
|
1
|
|
|
|
|
Comet P/2002 Q1 (Van Ness)
(Preview)
Comet P/2002 Q1 (Van Ness) is at Opposition (1.804 AU) in the constellation Lyra on the 30th May 2015 EphemerisDate TT R. A. (2000) Decl. Delta r Elong. Phase Mag
2015 05 29 19 04 49.6 +29 48 30 1.8048 2.4187 115.3 22.3 18.1
2015 05 30 19 04 40.1 +30 01 49 1.7938 2.4125 115.7 22.3 18.1
2015 05 31 19 04 29.1 +3...
|
Blobrana
|
2
|
|
|
|
|
Comet C/2015 F2 (Polonia)
(Preview)
Comet C/2015 F2 (Polonia) is a Perihelion (1.210 AU) in the constellation Capricornus on the 28th April 2015 EphemerisDate TT R. A. (2000) Decl. Delta r Elong. Phase Mag
2015 04 27 20 59 48.8 -25 01 50 0.7285 1.2007 86.0 56.7 16.6
2015 04 28 21 02 37.8 -24 00 54 0.7265 1.2004 86.1 56.8 16.6
2015 04 29 21 05...
|
Blobrana
|
2
|
|
|
|
|
Comet C/2014 XB8 (PANSTARRS)
(Preview)
Comet C/2014 XB8 (PANSTARRS) is at Perihelion (3.011 AU) in the constellation Aries on the 5th April 2015 EphemerisDate UT R.A. (J2000) Decl. Delta r El. Ph. Mag
2015 04 04 000000 02 25 16.7 +10 43 46 3.892 3.007 24.1 7.8 21.2
2015 04 05 000000 02 25 20.6 +10 51 05 3.901 3.007 23.1 7.5 21.2
2015 04 06 0000...
|
Blobrana
|
1
|
|
|
|
|
Comet 34D/Gale
(Preview)
Comet 34D/Gale makes its closest approach to the Earth (0.428 AU) on the 30th May 2015 EphemerisDate UT R.A. (J2000) Decl. Delta r El. Ph. Mag
2015 05 29 000000 21 45 57.4 -28 47 15 0.429 1.214 107.5 52.8
2015 05 30 000000 21 51 32.6 -28 48 40 0.429 1.212 107.3 53.0
2015 05 31 000000 21 57 04.0 -28 49 28 0.429...
|
Blobrana
|
2
|
|
|
|
|
Comet C/2015 B1 (PANSTARRS)
(Preview)
Comet C/2015 B1 (PANSTARRS) is at Perihelion (5.976 AU) in the constellation Virgo on the 18th September 2015. EphemerisDate TT R. A. (2000) Decl. Delta r Elong. Phase Mag
2015 09 15 11 54 58.5 -01 43 55 6.9695 5.9755 8.2 1.4 20.5
2015 09 16 11 55 41.5 -01 49 55 6.9712 5.9755 7.4 1.2 20.5
2015 09 17 11 56 24...
|
Blobrana
|
0
|
|
|
|
|
Comet C/2014 Q6 (PANSTARRS)
(Preview)
Comet C/2014 Q6 (PANSTARRS) is at Opposition (3.876 AU) in the constellation Pegasus on the 17th September 2015. EphemerisDate TT R. A. (2000) Decl. Delta r Elong. Phase Mag
2015 09 15 22 41 18.3 +31 53 43 3.8674 4.7097 143.0 7.4 19.2
2015 09 16 22 40 30.3 +31 55 27 3.8713 4.7133 143.0 7.4 19.2
2015 09 17...
|
Blobrana
|
0
|
|
|